Location: Doverdale
(52.2833°N, 2.2000°W)
Time: 03:40:31
(UTC+00:00)

DMSP B5D1-3 - Pass Details

Date: 29 October 2020
Orbit: 768 x 780 km, 98.5° (Epoch: 24 November)

Event Time Altitude Azimuth Distance (km) Brightness Sun altitude
Rises 19:01:38 0° 16° (NNE) 3,271 7.7 -21.4°
Reaches altitude 10° 19:03:58 10° 18° (NNE) 2,340 6.9 -21.8°
Maximum altitude 19:09:08 73° 103° (ESE) 820 4.4 -22.6°
Drops below altitude 10° 19:14:16 10° 189° (S) 2,329 7.0 -23.3°
Sets 19:16:35 0° 191° (S) 3,253 7.8 -23.7°
